Flag for Norway

Past Weather in Jørpeland, Norway — Yesterday and Last 2 Weeks

Now
59 °F

Light rain. Broken clouds.


Feels Like: 57 °F
Forecast: 56 / 50 °F
Wind: 13 mph from South

Location: Stavanger / Sola

Current Time: Jul 13, 2020 at 3:28:30 pm

Latest Report: Jul 13, 2020 at 2:20 pm


Visibility: N/A

Pressure: 30.04 "Hg

Humidity: 82%

Dew Point: 54 °F

Location of JørpelandLocation

Past Weather in Jørpeland — Graph

°F

Jørpeland Temperature Yesterday

Maximum temperature yesterday: 57 °F (at 12:50 pm)
Minimum temperature yesterday: 52 °F (at 12:50 am)
Average temperature yesterday: 54 °F

High & Low Weather Summary for the Past Weeks

 TemperatureHumidityPressure
High66 °F (Jun 28, 1:50 pm)100% (Jul 4, 6:20 pm)30.21 "Hg (Jul 4, 6:20 pm)
Low48 °F (Jul 7, 4:50 am)51% (Jul 1, 5:50 pm)29.00 "Hg (Jul 5, 12:20 pm)
Average56 °F76%29.70 "Hg
* Reported Jun 28 1:20 pm — Jul 13 1:50 pm, Jørpeland. Weather by CustomWeather, © 2020

Note: Actual official high and low records may vary slightly from our data, if they occured in-between our weather recording intervals... More about our weather records

Jørpeland Weather History for the Previous 24 Hours

Scroll right to see more
 ConditionsComfort  
Time TempWeatherWind HumidityBarometerVisibility
1:50 pm
Mon, Jul 13
61 °FLight rain. Broken clouds.14 mph77%30.04 "HgN/A
1:20 pm61 °FSprinkles. Broken clouds.13 mph77%30.04 "HgN/A
12:50 pm63 °FBroken clouds.12 mph73%30.07 "HgN/A
12:20 pm63 °FPartly sunny.14 mph73%30.07 "HgN/A
11:50 am61 °FPartly sunny.14 mph72%30.07 "HgN/A
11:20 am59 °FBroken clouds.13 mph72%30.09 "HgN/A
10:50 am57 °FPartly sunny.10 mph77%30.09 "HgN/A
10:20 am59 °FBroken clouds.12 mph77%30.09 "HgN/A
9:50 am57 °FBroken clouds.10 mph77%30.12 "HgN/A
9:20 am57 °FBroken clouds.9 mph82%30.12 "HgN/A
8:50 am57 °FScattered clouds.8 mph82%30.12 "HgN/A
8:20 am55 °FScattered clouds.7 mph88%30.12 "HgN/A
7:50 am54 °FPartly sunny.7 mph94%30.12 "HgN/A
7:20 am54 °FPartly sunny.6 mph94%30.12 "HgN/A
6:50 am54 °FBroken clouds.5 mph94%30.12 "HgN/A
6:20 am54 °FBroken clouds.5 mph94%30.12 "HgN/A
5:50 am52 °FBroken clouds.7 mph100%30.15 "HgN/A
5:20 am52 °FScattered showers. Partly sunny.5 mph100%30.15 "HgN/A
4:50 am54 °FSprinkles. Broken clouds.3 mph94%30.15 "HgN/A
3:50 am54 °FPassing clouds.2 mph94%30.18 "HgN/A
3:20 am54 °FPassing clouds.3 mph94%30.18 "Hg5 mi
2:50 am54 °FPassing clouds.5 mph94%30.18 "HgN/A
1:50 am54 °FPassing clouds.7 mph94%30.18 "HgN/A
1:20 am54 °FPassing clouds.6 mph94%30.18 "HgN/A
12:50 am54 °FPassing clouds.6 mph94%30.18 "HgN/A
12:20 am54 °FPartly cloudy.6 mph94%30.18 "HgN/A
11:50 pm
Sun, Jul 12
54 °FPassing clouds.6 mph94%30.18 "HgN/A
11:20 pm54 °FPartly cloudy.7 mph94%30.18 "HgN/A
10:50 pm54 °FPassing clouds.7 mph94%30.21 "HgN/A
10:20 pm55 °FPartly sunny.7 mph88%30.18 "HgN/A
9:50 pm55 °FMostly cloudy.3 mph94%30.18 "HgN/A
9:20 pm55 °FFog.3 mph94%30.18 "Hg6 mi
8:50 pm55 °FScattered showers. Broken clouds.6 mph94%30.18 "HgN/A
8:20 pm55 °FScattered showers. Broken clouds.7 mph88%30.18 "HgN/A
7:50 pm55 °FScattered showers. Broken clouds.9 mph94%30.18 "HgN/A
7:20 pm55 °FBroken clouds.10 mph88%30.18 "HgN/A
6:50 pm57 °FBroken clouds.13 mph82%30.18 "HgN/A
6:20 pm57 °FBroken clouds.12 mph88%30.18 "HgN/A
5:50 pm55 °FBroken clouds.13 mph88%30.18 "HgN/A
5:20 pm55 °FScattered showers. Broken clouds.12 mph94%30.18 "HgN/A
4:50 pm55 °FDrizzle. Broken clouds.14 mph94%30.18 "HgN/A
4:20 pm55 °FScattered showers. Broken clouds.12 mph94%30.18 "HgN/A
3:50 pm55 °FScattered showers. Broken clouds.12 mph94%30.18 "HgN/A
3:20 pm55 °FDrizzle. Broken clouds.13 mph94%30.18 "Hg5 mi
Weather by CustomWeather, © 2020

See weather overview